Showing default

ICEYE-X42, 62698

Orbit data source: Space-Track

ICEYE-X42, 62698 is an Emirian payload satellite in SSO that was launched on Tue, 14 Jan 2025 UTC via an FALCON 9 launch vehicle from the Air Force Western Test Range (AFWTR). Payload-class satellites include a variety of spacecraft equipped with specific instruments for various scientific and technological missions. These include communications satellites like Starlink; space stations such as the ISS; scientific satellites like the Hubble; Earth observation satellites from companies like Planet Labs, Umbra, and HawkEye 360; GPS; miniature CubeSats for education and research; and military/defense satellites.

Loading next visibility...
Identifier
62698, 2025-009CT
Orbit
SSO
Country
Flag of AEAE / UAE
Related business
None
Manufacturer
ICEYE
Mission
Operational Commercial Radar Imaging
Bus & Motor
ICEYE, Unknown motor
Mass
80 kg wet, 80 kg dry
Launch date (UTC)
2025-01-14 (1 year ago)
Launch vehicle
FALCON 9
Launch site
Air Force Western Test Range (AFWTR)
Object type
Payload
Rocket body
Debris
Shape & HBR
Box + 1 Pan, 2.4 m
Radar Cross Section
0.776 m², Medium (>0.1 m² and < 1m²)

Expand to show TLE details & history
Last TLE update: 1 day ago

TLE from 1 day ago
0 ICEYE-X42
1 62698U 25009CT  26170.75568828  .00001746  00000-0  17835-3 0  9997
2 62698  97.7398 249.0245 0001347  91.2636 268.8737 14.91856585 77674
Epoch: 2026-06-19T18:08Z
TLE epoch observation values (Epoch: 2026-06-19T18:08:11.467Z)
Latitude
-0.00003°
Longitude
68.99662°
Altitude
595.208 km
Speed
7.562 km/s
True Right ascension
16h 36m 05s
True Declination
0° 00' 00"
Sunlit
Object was in full shadow at epoch
Visualization orbit readout
Latitude
Unknown
Longitude
Unknown
Altitude
Unknown
Speed
Unknown
Apparent Right ascension
Unknown
Apparent Declination
Unknown
Sunlit
N/A
Visualization observer readout
Local Sidereal Time
07:22:52
Azimuth
Unknown
Elevation
Unknown
Doppler factor
Unknown
Orbital elements
Apogee altitude
590.103 km
Perigee altitude
588.226 km
Semi-major axis
6,967.302 km
Eccentricity
0.00013
Inclination
97.7398°
RAAN
249.0245°
Arg. of periapsis
91.2636°
True anomaly
268.85827°
Mean anomaly
268.8737°
Eccentric anomaly
268.86598°
Mean motion
3.73204 °/min
Orbital period
96.46 mins
BSTAR
0.00017835
Loading maneuver chart data...
Computing Atmospheric mass density...
Loading historical data...
Loading historical data...
Loading historical data...
Loading historical data...
Loading historical data...
Loading historical data...
Loading historical data...

Documentation

Showing up to 5 results
|